Meteo pe oră la Abla

Astăzi, 26 Iulie, Luni

Timp Temperatura Precipitaţii Vânt Presiune Umiditate
00:00 +15°C° 0 mm 2 m/s 757 mmHg 49%
01:00 +15°C° 0 mm 2 m/s 757 mmHg 53%
02:00 +14°C° 0 mm 2 m/s 757 mmHg 57%
03:00 +14°C° 0 mm 2 m/s 757 mmHg 61%
04:00 +14°C° 0 mm 2 m/s 757 mmHg 63%
05:00 +15°C° 0 mm 2 m/s 757 mmHg 65%
06:00 +16°C° 0 mm 2 m/s 757 mmHg 66%
07:00 +17°C° 0 mm 2 m/s 757 mmHg 61%
08:00 +18°C° 0 mm 2 m/s 757 mmHg 55%
09:00 +20°C° 0 mm 3 m/s 757 mmHg 49%
10:00 +21°C° 0 mm 3 m/s 757 mmHg 47%
11:00 +21°C° 0 mm 3 m/s 757 mmHg 45%
12:00 +22°C° 0 mm 4 m/s 757 mmHg 43%
13:00 +22°C° 0 mm 4 m/s 757 mmHg 44%
14:00 +22°C° 0 mm 3 m/s 756 mmHg 45%
15:00 +22°C° 0 mm 3 m/s 756 mmHg 46%
16:00 +22°C° 0 mm 3 m/s 756 mmHg 49%
17:00 +23°C° 0 mm 2 m/s 756 mmHg 51%
18:00 +21°C° 0 mm 2 m/s 756 mmHg 54%
19:00 +20°C° 0 mm 2 m/s 756 mmHg 57%
20:00 +18°C° 0 mm 2 m/s 755 mmHg 60%
21:00 +16°C° 0 mm 2 m/s 755 mmHg 63%
22:00 +17°C° 0 mm 2 m/s 755 mmHg 61%
23:00 +17°C° 0 mm 3 m/s 755 mmHg 60%

Mâine, 27 Iulie, Marţi

Timp Temperatura Precipitaţii Vânt Presiune Umiditate
00:00 +17°C° 0 mm 3 m/s 755 mmHg 58%
01:00 +17°C° 0 mm 3 m/s 755 mmHg 59%
02:00 +17°C° 0 mm 3 m/s 754 mmHg 60%
03:00 +16°C° 0 mm 3 m/s 754 mmHg 62%
04:00 +17°C° 0 mm 3 m/s 754 mmHg 64%
05:00 +17°C° 0 mm 3 m/s 754 mmHg 66%
06:00 +17°C° 0 mm 3 m/s 754 mmHg 69%
07:00 +18°C° 0 mm 4 m/s 754 mmHg 66%
08:00 +20°C° 0 mm 4 m/s 754 mmHg 62%
09:00 +21°C° 0 mm 4 m/s 754 mmHg 59%
10:00 +21°C° 0.1 mm 5 m/s 754 mmHg 59%
11:00 +21°C° 0.1 mm 5 m/s 754 mmHg 59%
12:00 +22°C° 0.1 mm 5 m/s 754 mmHg 59%
13:00 +22°C° 0.3 mm 5 m/s 753 mmHg 55%
14:00 +23°C° 0.3 mm 5 m/s 753 mmHg 51%
15:00 +23°C° 0.3 mm 5 m/s 753 mmHg 47%
16:00 +23°C° 0 mm 4 m/s 753 mmHg 48%
17:00 +22°C° 0 mm 3 m/s 753 mmHg 49%
18:00 +22°C° 0 mm 3 m/s 753 mmHg 50%
19:00 +20°C° 0 mm 2 m/s 753 mmHg 55%
20:00 +18°C° 0 mm 2 m/s 753 mmHg 60%
21:00 +16°C° 0 mm 2 m/s 753 mmHg 65%
22:00 +15°C° 0 mm 2 m/s 754 mmHg 69%
23:00 +14°C° 0 mm 1 m/s 754 mmHg 73%

Poimâine, 28 Iulie, Miercuri

Timp Temperatura Precipitaţii Vânt Presiune Umiditate
00:00 +13°C° 0 mm 1 m/s 754 mmHg 77%
01:00 +12°C° 0 mm 1 m/s 754 mmHg 79%
02:00 +12°C° 0 mm 1 m/s 754 mmHg 81%
03:00 +10°C° 0 mm 0 m/s 754 mmHg 83%
04:00 +12°C° 0 mm 1 m/s 754 mmHg 79%
05:00 +14°C° 0 mm 1 m/s 754 mmHg 74%
06:00 +15°C° 0 mm 1 m/s 755 mmHg 70%
07:00 +16°C° 0 mm 2 m/s 754 mmHg 63%
08:00 +18°C° 0 mm 2 m/s 754 mmHg 55%
09:00 +20°C° 0 mm 2 m/s 754 mmHg 48%
10:00 +21°C° 0 mm 2 m/s 754 mmHg 44%
11:00 +23°C° 0 mm 2 m/s 754 mmHg 41%
12:00 +24°C° 0 mm 3 m/s 753 mmHg 38%
13:00 +25°C° 0 mm 3 m/s 753 mmHg 38%
14:00 +25°C° 0 mm 4 m/s 752 mmHg 39%
15:00 +26°C° 0 mm 5 m/s 752 mmHg 39%
16:00 +25°C° 0 mm 4 m/s 752 mmHg 45%
17:00 +24°C° 0 mm 3 m/s 752 mmHg 51%
18:00 +22°C° 0 mm 3 m/s 751 mmHg 58%
19:00 +20°C° 0.2 mm 3 m/s 751 mmHg 64%
20:00 +19°C° 0.2 mm 3 m/s 751 mmHg 71%
21:00 +18°C° 0.2 mm 3 m/s 750 mmHg 78%
22:00 +17°C° 0.2 mm 3 m/s 750 mmHg 83%
23:00 +16°C° 0.2 mm 3 m/s 750 mmHg 88%

29 Iulie, Joi

Timp Temperatura Precipitaţii Vânt Presiune Umiditate
00:00 +16°C° 0.2 mm 3 m/s 750 mmHg 94%
01:00 +16°C° 0 mm 3 m/s 749 mmHg 93%
02:00 +16°C° 0 mm 3 m/s 749 mmHg 93%
03:00 +16°C° 0 mm 2 m/s 749 mmHg 93%
04:00 +16°C° 0 mm 2 m/s 748 mmHg 91%
05:00 +17°C° 0 mm 2 m/s 748 mmHg 89%
06:00 +18°C° 0 mm 3 m/s 748 mmHg 87%
07:00 +18°C° 0.6 mm 3 m/s 747 mmHg 88%
08:00 +18°C° 0.6 mm 3 m/s 747 mmHg 90%
09:00 +18°C° 0.6 mm 3 m/s 747 mmHg 92%
10:00 +18°C° 2.3 mm 4 m/s 746 mmHg 94%
11:00 +18°C° 2.3 mm 4 m/s 746 mmHg 95%
12:00 +16°C° 2.3 mm 5 m/s 745 mmHg 97%
13:00 +17°C° 2.1 mm 5 m/s 745 mmHg 97%
14:00 +17°C° 2.1 mm 5 m/s 744 mmHg 96%
15:00 +17°C° 2.1 mm 5 m/s 744 mmHg 96%
16:00 +18°C° 0.1 mm 4 m/s 744 mmHg 95%
17:00 +19°C° 0.1 mm 4 m/s 744 mmHg 95%
18:00 +20°C° 0.1 mm 3 m/s 743 mmHg 94%
19:00 +19°C° 0 mm 3 m/s 743 mmHg 95%
20:00 +18°C° 0 mm 2 m/s 743 mmHg 96%
21:00 +19°C° 0 mm 1 m/s 743 mmHg 97%
22:00 +19°C° 0 mm 1 m/s 743 mmHg 97%
23:00 +18°C° 0 mm 1 m/s 743 mmHg 97%

30 Iulie, Vineri

Timp Temperatura Precipitaţii Vânt Presiune Umiditate
00:00 +18°C° 0 mm 1 m/s 743 mmHg 98%
01:00 +18°C° 0 mm 1 m/s 743 mmHg 97%
02:00 +17°C° 0 mm 2 m/s 743 mmHg 97%
03:00 +17°C° 0 mm 2 m/s 744 mmHg 97%
04:00 +17°C° 0 mm 2 m/s 744 mmHg 96%
05:00 +17°C° 0 mm 2 m/s 744 mmHg 94%
06:00 +17°C° 0 mm 2 m/s 744 mmHg 92%
07:00 +19°C° 0 mm 3 m/s 745 mmHg 87%
08:00 +20°C° 0 mm 3 m/s 745 mmHg 82%
09:00 +21°C° 0 mm 4 m/s 745 mmHg 77%
10:00 +23°C° 0 mm 4 m/s 746 mmHg 71%
11:00 +25°C° 0 mm 4 m/s 746 mmHg 65%
12:00 +26°C° 0 mm 4 m/s 746 mmHg 60%
13:00 +27°C° 0 mm 5 m/s 745 mmHg 58%
14:00 +28°C° 0 mm 5 m/s 745 mmHg 56%
15:00 +28°C° 0 mm 6 m/s 745 mmHg 54%
16:00 +27°C° 0.2 mm 5 m/s 745 mmHg 61%
17:00 +26°C° 0.2 mm 4 m/s 745 mmHg 68%
18:00 +24°C° 0.2 mm 3 m/s 745 mmHg 75%
19:00 +22°C° 0.5 mm 4 m/s 745 mmHg 81%
20:00 +21°C° 0.5 mm 4 m/s 746 mmHg 86%
21:00 +20°C° 0.5 mm 5 m/s 746 mmHg 92%
22:00 +19°C° 0 mm 4 m/s 746 mmHg 92%
23:00 +19°C° 0 mm 3 m/s 746 mmHg 93%

31 Iulie, Sâmbătă

Timp Temperatura Precipitaţii Vânt Presiune Umiditate
00:00 +18°C° 0 mm 2 m/s 746 mmHg 94%
01:00 +18°C° 0 mm 2 m/s 746 mmHg 94%
02:00 +18°C° 0 mm 2 m/s 746 mmHg 93%
03:00 +18°C° 0 mm 2 m/s 747 mmHg 93%
04:00 +19°C° 0 mm 1 m/s 747 mmHg 92%
05:00 +20°C° 0 mm 1 m/s 747 mmHg 90%
06:00 +21°C° 0 mm 1 m/s 748 mmHg 88%
07:00 +22°C° 0 mm 1 m/s 748 mmHg 81%
08:00 +24°C° 0 mm 2 m/s 748 mmHg 75%
09:00 +25°C° 0 mm 2 m/s 748 mmHg 68%
10:00 +26°C° 0 mm 2 m/s 748 mmHg 61%
11:00 +28°C° 0 mm 2 m/s 748 mmHg 55%
12:00 +29°C° 0 mm 2 m/s 748 mmHg 48%
13:00 +29°C° 0 mm 3 m/s 748 mmHg 47%
14:00 +30°C° 0 mm 3 m/s 748 mmHg 45%
15:00 +30°C° 0 mm 3 m/s 748 mmHg 44%
16:00 +29°C° 0 mm 3 m/s 748 mmHg 49%
17:00 +29°C° 0 mm 2 m/s 747 mmHg 55%
18:00 +28°C° 0 mm 1 m/s 747 mmHg 60%
19:00 +27°C° 0 mm 1 m/s 748 mmHg 62%
20:00 +26°C° 0 mm 2 m/s 748 mmHg 64%
21:00 +24°C° 0 mm 2 m/s 748 mmHg 66%
22:00 +24°C° 0 mm 2 m/s 748 mmHg 67%
23:00 +24°C° 0 mm 2 m/s 748 mmHg 67%
Arată mai mult

Formular de consimțământ

Meteoprog și furnizorii noștri de servicii pot stoca și accesa date personale, precum cookies, identificatori de dispozitiv sau alte tehnologii similare pe dispozitivul dumneavoastră și procesa astfel de date pentru a personaliza conținutul și reclamele, dar și pentru a oferi caracteristici de social media și pentru a analiza traficul.

  • Stocarea și/sau accesarea informațiilor pe dispozitivul dumneavoastră

    Cookies, identificatori de dispozitiv sau alte informații pot fi stocate sau accesate pe dispozitiv în scopurile indicate mai sus.

  • Reclame și conținut personalizat, evaluarea reclamelor și a conținutului, informații despre audiențe și dezvoltarea produselor

    Reclamele și conținutul pot fi personalizate pe baza unui profil. Pot fi adăugate date suplimentare pentru a personaliza mai bine reclamele și conținutul. Performanța reclamelor și conținutului poate fi măsurată. Pot fi obținute informații despre utilizatorii care au văzut reclamele și conținutul. Aceste date pot fi utilizate pentru a dezvolta sau îmbunătăți experiența utilizatorilor, sistemele și software-ul.

Dând clic pe ‘Sunt de acord’, permiteți utilizarea cookie-urilor menționate, a identificatorilor de dispozitiv, balizelor web sau altor tehnologii similare. Setările pot fi modificate din browser-ul dispozitivului dumneavoastră.

În anumite scopuri, interesele legitime pot prima asupra consimțământului. Puteți citi mai multe informații în acest sens în Politica privind Confidențialitatea Datelor și Cookie.